Weather History for KRQB - January, 2012

Change the Weather History Date:

Monday, January 16, 2012

  Actual Average Record
Temperature  
Mean Temperature 26 °F -  
Max Temperature 38 °F 28 °F 47 °F (1974)
Min Temperature 14 °F 6 °F -23 °F (1977)
Degree Days  
Heating Degree Days 39    
Moisture  
Dew Point 25 °F    
Average Humidity 91    
Maximum Humidity 100    
Minimum Humidity 81    
Precipitation  
Precipitation 0.00 in - - ()
Sea Level Pressure  
Sea Level Pressure 29.84 in    
Wind  
Wind Speed 6 mph (South)    
Max Wind Speed 10 mph    
Max Gust Speed -    
Visibility 9 miles    
Events Snow    
Averages and records for this station are not official NWS values.
T = Trace of Precipitation, MM = Missing Value Source: NWS Daily Summary

Daily Weather History Graph

Daily Weather History Graph

Search for Another Location

Airport or City:

Trip Planner

Search our weather history database for the weather conditions in past years. The results will help you decide how hot, cold, wet, or windy it might be!

Date:

Astronomy

Jan. 16, 2012 Rise Set
Actual Time 8:12 AM EST 5:31 PM EST
Civil Twilight 7:40 AM EST 6:03 PM EST
Nautical Twilight 7:05 AM EST 6:38 PM EST
Astronomical Twilight 6:30 AM EST 7:12 PM EST
Moon 1:16 AM EST (1/16) 11:47 AM EST (1/16)
Length of Visible Light 10h 22m
Length of Day
9h 18m
Waning Gibbous, 46% of the Moon is Illuminated
Jan 16
Waning Gibbous
Jan 23
New
Jan 30
First Quarter
Feb 7
Full
Feb 14
Last Quarter

Hourly Weather History & Observations

Time (EST) Temp. Windchill Dew Point Humidity Pressure Visibility Wind Dir Wind Speed Gust Speed Precip Events Conditions
12:34 AM 17.1 °F 6.6 °F 13.3 °F 85% 30.12 in 10.0 mi SSE 8.1 mph - N/A   Clear
1:14 AM 17.2 °F 6.0 °F 13.6 °F 86% 30.08 in 10.0 mi SSE 9.2 mph - N/A   Clear
1:34 AM 17.4 °F 6.2 °F 13.6 °F 85% 30.07 in 10.0 mi South 9.2 mph - N/A   Clear
1:54 AM 17.8 °F 6.6 °F 13.8 °F 84% 30.06 in 10.0 mi SSE 9.2 mph - N/A   Clear
2:14 AM 18.5 °F 8.4 °F 14.4 °F 84% 30.05 in 10.0 mi SSE 8.1 mph - N/A   Clear
2:34 AM 19.4 °F 8.6 °F 14.9 °F 83% 30.04 in 10.0 mi SSE 9.2 mph - N/A   Clear
2:54 AM 20.1 °F 9.5 °F 15.6 °F 83% 30.03 in 10.0 mi SSE 9.2 mph - N/A   Clear
3:15 AM 20.7 °F 10.2 °F 15.8 °F 81% 30.02 in 10.0 mi SSE 9.2 mph - N/A   Clear
3:34 AM 20.7 °F 9.5 °F 15.8 °F 81% 30.00 in 10.0 mi SSE 10.4 mph - N/A   Clear
3:54 AM 20.8 °F 10.4 °F 16.2 °F 82% 29.99 in 10.0 mi South 9.2 mph - N/A   Clear
4:15 AM 20.5 °F 10.0 °F 16.3 °F 84% 29.97 in 10.0 mi SSE 9.2 mph - N/A   Clear
4:34 AM 20.3 °F 10.6 °F 16.3 °F 85% 29.96 in 10.0 mi SSE 8.1 mph - N/A   Clear
4:54 AM 20.3 °F 11.5 °F 16.3 °F 85% 29.95 in 10.0 mi SSE 6.9 mph - N/A   Clear
5:15 AM 19.9 °F 11.1 °F 16.2 °F 85% 29.93 in 10.0 mi SSE 6.9 mph - N/A   Clear
5:34 AM 19.9 °F 11.1 °F 16.3 °F 86% 29.92 in 10.0 mi SSE 6.9 mph - N/A   Clear
5:54 AM 19.2 °F 11.3 °F 16.0 °F 87% 29.91 in 10.0 mi SSE 5.8 mph - N/A   Clear
6:15 AM 18.5 °F 11.7 °F 15.8 °F 89% 29.90 in 10.0 mi SSE 4.6 mph - N/A   Clear
6:34 AM 18.3 °F 11.5 °F 16.2 °F 91% 29.90 in 10.0 mi SE 4.6 mph - N/A   Clear
6:54 AM 18.5 °F 13.3 °F 16.3 °F 91% 29.89 in 10.0 mi SE 3.5 mph - N/A   Clear
7:15 AM 15.8 °F 10.2 °F 14.5 °F 95% 29.89 in 7.0 mi SSE 3.5 mph - N/A   Clear
7:34 AM 14.5 °F 8.8 °F 14.4 °F 99% 29.88 in 7.0 mi SE 3.5 mph - N/A   Clear
7:54 AM 14.2 °F - 14.2 °F 100% 29.87 in 7.0 mi Calm Calm - N/A   Clear
8:14 AM 14.0 °F - 14.0 °F 100% 29.86 in 5.0 mi Calm Calm - N/A   Clear
8:34 AM 15.4 °F - 15.4 °F 100% 29.86 in 5.0 mi Calm Calm - N/A   Clear
8:54 AM 17.6 °F 12.3 °F 17.6 °F 100% 29.85 in 7.0 mi SSE 3.5 mph - N/A   Clear
9:14 AM 20.1 °F 12.3 °F 19.2 °F 96% 29.84 in 7.0 mi South 5.8 mph - N/A   Clear
9:34 AM 21.2 °F 13.6 °F 19.8 °F 94% 29.84 in 7.0 mi South 5.8 mph - N/A   Clear
9:54 AM 21.6 °F 15.3 °F 19.2 °F 91% 29.84 in 7.0 mi South 4.6 mph - N/A   Clear
10:15 AM 23.2 °F 16.0 °F 20.3 °F 89% 29.83 in 10.0 mi South 5.8 mph - N/A   Clear
10:34 AM 24.1 °F 18.2 °F 21.2 °F 89% 29.82 in 7.0 mi SSE 4.6 mph - N/A   Clear
10:54 AM 25.0 °F 19.3 °F 21.7 °F 87% 29.82 in 10.0 mi SSE 4.6 mph - N/A   Scattered Clouds
11:14 AM 27.1 °F 23.2 °F 23.5 °F 86% 29.81 in 10.0 mi South 3.5 mph - N/A   Clear
11:34 AM 29.8 °F 24.9 °F 25.7 °F 85% 29.81 in 10.0 mi South 4.6 mph - N/A   Clear
11:55 AM 31.1 °F 23.1 °F 27.3 °F 86% 29.80 in 10.0 mi SSW 9.2 mph - N/A   Clear
12:14 PM 31.8 °F 25.4 °F 28.0 °F 86% 29.78 in 10.0 mi South 6.9 mph - N/A   Clear
12:34 PM 32.2 °F 26.7 °F 29.1 °F 88% 29.77 in 10.0 mi South 5.8 mph - N/A   Clear
12:55 PM 34.2 °F 28.2 °F 30.9 °F 88% 29.75 in 10.0 mi SSW 6.9 mph - N/A   Scattered Clouds
1:14 PM 36.0 °F 30.3 °F 32.0 °F 86% 29.74 in 10.0 mi SSW 6.9 mph - N/A   Mostly Cloudy
1:34 PM 36.3 °F 31.6 °F 32.4 °F 86% 29.73 in 10.0 mi SSW 5.8 mph - N/A   Overcast
1:55 PM 37.0 °F 31.0 °F 33.3 °F 86% 29.73 in 10.0 mi SSW 8.1 mph - N/A   Overcast
2:14 PM 37.8 °F 32.5 °F 34.0 °F 86% 29.72 in 10.0 mi SSW 6.9 mph - N/A   Overcast
2:34 PM 38.1 °F 32.3 °F 34.2 °F 86% 29.72 in 10.0 mi SSW 8.1 mph - N/A   Overcast
3:14 PM 37.8 °F 33.3 °F 34.7 °F 89% 29.72 in 10.0 mi SSW 5.8 mph - N/A   Overcast
3:34 PM 38.3 °F 33.9 °F 34.7 °F 87% 29.71 in 10.0 mi SSW 5.8 mph - N/A   Overcast
3:55 PM 38.3 °F 33.9 °F 35.1 °F 88% 29.72 in 10.0 mi SSW 5.8 mph - N/A   Overcast
4:14 PM 38.3 °F 33.9 °F 35.2 °F 89% 29.72 in 10.0 mi SW 5.8 mph - N/A   Overcast
4:34 PM 38.1 °F 34.6 °F 35.4 °F 90% 29.72 in 10.0 mi SSW 4.6 mph - N/A   Overcast
4:55 PM 37.6 °F - 35.6 °F 93% 29.72 in 10.0 mi Calm Calm - N/A   Overcast
5:14 PM 36.5 °F 32.7 °F 36.3 °F 99% 29.72 in 10.0 mi South 4.6 mph - N/A   Overcast
5:34 PM 36.7 °F 32.9 °F 36.3 °F 99% 29.73 in 10.0 mi ESE 4.6 mph - N/A   Overcast
5:55 PM 35.6 °F - 35.6 °F 100% 29.73 in 7.0 mi Calm Calm - N/A   Overcast
6:14 PM 34.5 °F 30.4 °F 34.5 °F 100% 29.73 in 7.0 mi SSW 4.6 mph - N/A   Overcast
6:34 PM 34.0 °F 31.0 °F 34.0 °F 100% 29.73 in 5.0 mi South 3.5 mph - N/A   Overcast
6:55 PM 35.1 °F 32.2 °F 35.1 °F 100% 29.73 in 7.0 mi SSE 3.5 mph - N/A   Overcast
7:14 PM 34.2 °F - 34.2 °F 100% 29.73 in 7.0 mi Calm Calm - N/A   Overcast
7:34 PM 34.5 °F - 34.5 °F 100% 29.74 in 7.0 mi Calm Calm - N/A   Overcast
7:55 PM 34.3 °F - 34.3 °F 100% 29.74 in 7.0 mi Calm Calm - N/A   Overcast
8:14 PM 34.0 °F 31.0 °F 34.0 °F 100% 29.74 in 5.0 mi West 3.5 mph - N/A   Overcast
8:34 PM 33.8 °F - 33.8 °F 100% 29.73 in 4.0 mi Calm Calm - N/A   Overcast
9:14 PM 34.3 °F - 34.3 °F 100% 29.74 in 4.0 mi Calm Calm - N/A   Overcast
9:54 PM 33.3 °F - 33.3 °F 100% 29.73 in 2.0 mi Calm Calm - N/A Snow Light Snow
10:14 PM 33.8 °F - 33.8 °F 100% 29.74 in 2.0 mi Calm Calm - N/A Snow Light Snow
10:35 PM 33.8 °F - 33.8 °F 100% 29.74 in 1.5 mi Calm Calm - N/A Rain Light Rain
10:54 PM 33.1 °F - 33.1 °F 100% 29.74 in 1.5 mi Calm Calm - N/A   Overcast
11:14 PM 33.1 °F - 33.1 °F 100% 29.74 in 1.5 mi Calm Calm - N/A   Overcast
11:35 PM 32.9 °F - 32.9 °F 100% 29.74 in 1.2 mi Calm Calm - N/A   Overcast
11:54 PM 34.0 °F 28.0 °F 34.0 °F 100% 29.72 in 1.5 mi North 6.9 mph - N/A   Overcast